PRIVATE WETTERSTATION BILLIGHEIM-ALLFELD                       ZURCK
Wetterdaten: Mittwoch, 04.05.2016
Datum Zeit Temp. A. Temp. A. min Temp. A. max Feuchte A. Luftdruck Regen Wind Richtung Richtung Sonnenschein ET Solar Taupunkt Windchill Windben Empfang
04.05.2016 00:00 5,7 C 5,6 C 5,7 C 91 % 1025,5 hPa 0,0 l/m 0,0 km/h (0 Bft) N 0 0 min 0,000 mm 0 W/m 4,3 C 5,7 C 0,0 km/h (0 Bft) 100 %
04.05.2016 00:10 5,8 C 5,7 C 5,8 C 91 % 1025,5 hPa 0,0 l/m 0,0 km/h (0 Bft) N 0 0 min 0,000 mm 0 W/m 4,4 C 5,8 C 0,0 km/h (0 Bft) 99 %
04.05.2016 00:20 5,9 C 5,8 C 5,9 C 91 % 1025,7 hPa 0,0 l/m 0,0 km/h (0 Bft) N-NW 337 0 min 0,000 mm 0 W/m 4,5 C 5,9 C 4,8 km/h (1 Bft) 100 %
04.05.2016 00:30 5,8 C 5,8 C 5,9 C 91 % 1025,8 hPa 0,0 l/m 0,0 km/h (0 Bft) N-NW 337 0 min 0,000 mm 0 W/m 4,4 C 5,8 C 6,4 km/h (2 Bft) 100 %
04.05.2016 00:40 5,9 C 5,8 C 5,9 C 91 % 1025,8 hPa 0,0 l/m 0,0 km/h (0 Bft) N-NW 337 0 min 0,000 mm 0 W/m 4,5 C 5,9 C 1,6 km/h (1 Bft) 100 %
04.05.2016 00:50 6,1 C 5,9 C 6,1 C 91 % 1025,8 hPa 0,0 l/m 0,0 km/h (0 Bft) N 0 0 min 0,000 mm 0 W/m 4,7 C 6,1 C 0,0 km/h (0 Bft) 100 %
04.05.2016 01:00 6,3 C 6,1 C 6,3 C 91 % 1025,8 hPa 0,0 l/m 0,0 km/h (0 Bft) N 0 0 min 0,000 mm 0 W/m 4,9 C 6,3 C 0,0 km/h (0 Bft) 100 %
04.05.2016 01:10 6,4 C 6,3 C 6,4 C 91 % 1025,8 hPa 0,0 l/m 0,0 km/h (0 Bft) N 0 0 min 0,000 mm 0 W/m 5,0 C 6,4 C 0,0 km/h (0 Bft) 100 %
04.05.2016 01:20 6,4 C 6,4 C 6,4 C 91 % 1025,9 hPa 0,0 l/m 0,0 km/h (0 Bft) N 0 0 min 0,000 mm 0 W/m 5,0 C 6,4 C 0,0 km/h (0 Bft) 100 %
04.05.2016 01:30 6,4 C 6,4 C 6,4 C 91 % 1025,9 hPa 0,0 l/m 0,0 km/h (0 Bft) N 0 0 min 0,000 mm 0 W/m 5,0 C 6,4 C 0,0 km/h (0 Bft) 100 %
04.05.2016 01:40 6,4 C 6,4 C 6,4 C 91 % 1025,9 hPa 0,0 l/m 0,0 km/h (0 Bft) N 0 0 min 0,000 mm 0 W/m 5,0 C 6,4 C 0,0 km/h (0 Bft) 100 %
04.05.2016 01:50 6,2 C 6,2 C 6,4 C 91 % 1025,9 hPa 0,0 l/m 0,0 km/h (0 Bft) N 0 0 min 0,000 mm 0 W/m 4,8 C 6,2 C 0,0 km/h (0 Bft) 100 %
04.05.2016 02:00 6,1 C 6,1 C 6,2 C 91 % 1025,9 hPa 0,0 l/m 0,0 km/h (0 Bft) N 0 0 min 0,000 mm 0 W/m 4,7 C 6,1 C 0,0 km/h (0 Bft) 100 %
04.05.2016 02:10 5,8 C 5,8 C 6,1 C 91 % 1025,9 hPa 0,0 l/m 0,0 km/h (0 Bft) N 0 0 min 0,000 mm 0 W/m 4,4 C 5,8 C 0,0 km/h (0 Bft) 100 %
04.05.2016 02:20 5,6 C 5,6 C 5,8 C 91 % 1025,9 hPa 0,0 l/m 0,0 km/h (0 Bft) N 0 0 min 0,000 mm 0 W/m 4,2 C 5,6 C 0,0 km/h (0 Bft) 100 %
04.05.2016 02:30 5,4 C 5,4 C 5,6 C 91 % 1025,9 hPa 0,0 l/m 0,0 km/h (0 Bft) N 0 0 min 0,000 mm 0 W/m 4,1 C 5,4 C 0,0 km/h (0 Bft) 100 %
04.05.2016 02:40 5,1 C 5,1 C 5,4 C 91 % 1025,9 hPa 0,0 l/m 0,0 km/h (0 Bft) N 0 0 min 0,000 mm 0 W/m 3,8 C 5,1 C 0,0 km/h (0 Bft) 100 %
04.05.2016 02:50 5,0 C 5,0 C 5,1 C 91 % 1026,0 hPa 0,0 l/m 0,0 km/h (0 Bft) N 0 0 min 0,000 mm 0 W/m 3,7 C 5,0 C 0,0 km/h (0 Bft) 100 %
04.05.2016 03:00 4,9 C 4,9 C 5,0 C 91 % 1026,0 hPa 0,0 l/m 0,0 km/h (0 Bft) N 0 0 min 0,000 mm 0 W/m 3,6 C 4,9 C 0,0 km/h (0 Bft) 100 %
04.05.2016 03:10 4,7 C 4,7 C 4,9 C 91 % 1026,0 hPa 0,0 l/m 0,0 km/h (0 Bft) N 0 0 min 0,000 mm 0 W/m 3,4 C 4,7 C 0,0 km/h (0 Bft) 100 %
04.05.2016 03:20 4,6 C 4,6 C 4,7 C 91 % 1025,9 hPa 0,0 l/m 0,0 km/h (0 Bft) N 0 0 min 0,000 mm 0 W/m 3,3 C 4,6 C 0,0 km/h (0 Bft) 100 %
04.05.2016 03:30 4,4 C 4,4 C 4,6 C 91 % 1026,1 hPa 0,0 l/m 0,0 km/h (0 Bft) N 0 0 min 0,000 mm 0 W/m 3,1 C 4,4 C 0,0 km/h (0 Bft) 100 %
04.05.2016 03:40 4,4 C 4,4 C 4,4 C 91 % 1026,2 hPa 0,0 l/m 0,0 km/h (0 Bft) N 0 0 min 0,000 mm 0 W/m 3,1 C 4,4 C 0,0 km/h (0 Bft) 100 %
04.05.2016 03:50 4,2 C 4,2 C 4,4 C 91 % 1026,2 hPa 0,0 l/m 0,0 km/h (0 Bft) N 0 0 min 0,000 mm 0 W/m 2,9 C 4,2 C 0,0 km/h (0 Bft) 100 %
04.05.2016 04:00 4,1 C 4,1 C 4,2 C 91 % 1026,2 hPa 0,0 l/m 0,0 km/h (0 Bft) N 0 0 min 0,000 mm 0 W/m 2,8 C 4,1 C 0,0 km/h (0 Bft) 100 %
04.05.2016 04:10 3,8 C 3,8 C 4,1 C 91 % 1026,3 hPa 0,0 l/m 0,0 km/h (0 Bft) N 0 0 min 0,000 mm 0 W/m 2,5 C 3,8 C 0,0 km/h (0 Bft) 100 %
04.05.2016 04:20 3,7 C 3,7 C 3,8 C 91 % 1026,4 hPa 0,0 l/m 0,0 km/h (0 Bft) N 0 0 min 0,000 mm 0 W/m 2,4 C 3,7 C 0,0 km/h (0 Bft) 100 %
04.05.2016 04:30 3,6 C 3,6 C 3,7 C 91 % 1026,4 hPa 0,0 l/m 0,0 km/h (0 Bft) N 0 0 min 0,000 mm 0 W/m 2,3 C 3,6 C 0,0 km/h (0 Bft) 91 %
04.05.2016 04:40 3,5 C 3,5 C 3,6 C 91 % 1026,4 hPa 0,0 l/m 0,0 km/h (0 Bft) N 0 0 min 0,000 mm 0 W/m 2,2 C 3,5 C 0,0 km/h (0 Bft) 100 %
04.05.2016 04:50 3,3 C 3,3 C 3,5 C 91 % 1026,4 hPa 0,0 l/m 0,0 km/h (0 Bft) N 0 0 min 0,000 mm 0 W/m 2,0 C 3,3 C 0,0 km/h (0 Bft) 100 %
04.05.2016 05:00 3,2 C 3,2 C 3,3 C 91 % 1026,5 hPa 0,0 l/m 0,0 km/h (0 Bft) N 0 0 min 0,000 mm 0 W/m 1,9 C 3,2 C 0,0 km/h (0 Bft) 100 %
04.05.2016 05:10 2,9 C 2,9 C 3,2 C 91 % 1026,5 hPa 0,0 l/m 0,0 km/h (0 Bft) N 0 0 min 0,000 mm 0 W/m 1,6 C 2,9 C 0,0 km/h (0 Bft) 100 %
04.05.2016 05:20 2,7 C 2,7 C 2,9 C 91 % 1026,5 hPa 0,0 l/m 0,0 km/h (0 Bft) N 0 0 min 0,000 mm 0 W/m 1,4 C 2,7 C 0,0 km/h (0 Bft) 100 %
04.05.2016 05:30 2,5 C 2,5 C 2,7 C 91 % 1026,5 hPa 0,0 l/m 0,0 km/h (0 Bft) N 0 0 min 0,000 mm 0 W/m 1,2 C 2,5 C 0,0 km/h (0 Bft) 99 %
04.05.2016 05:40 2,4 C 2,4 C 2,5 C 91 % 1026,5 hPa 0,0 l/m 0,0 km/h (0 Bft) N 0 0 min 0,000 mm 0 W/m 1,1 C 2,4 C 0,0 km/h (0 Bft) 100 %
04.05.2016 05:50 2,4 C 2,4 C 2,4 C 91 % 1026,6 hPa 0,0 l/m 0,0 km/h (0 Bft) N 0 0 min 0,000 mm 0 W/m 1,1 C 2,4 C 0,0 km/h (0 Bft) 100 %
04.05.2016 06:00 2,3 C 2,3 C 2,4 C 91 % 1026,9 hPa 0,0 l/m 0,0 km/h (0 Bft) N 0 0 min 0,000 mm 0 W/m 1,0 C 2,3 C 0,0 km/h (0 Bft) 100 %
04.05.2016 06:10 2,3 C 2,3 C 2,3 C 91 % 1027,0 hPa 0,0 l/m 0,0 km/h (0 Bft) N 0 0 min 0,000 mm 0 W/m 1,0 C 2,3 C 0,0 km/h (0 Bft) 92 %
04.05.2016 06:20 2,2 C 2,2 C 2,3 C 91 % 1027,1 hPa 0,0 l/m 0,0 km/h (0 Bft) N-NW 337 0 min 0,000 mm 0 W/m 0,9 C 2,2 C 1,6 km/h (1 Bft) 100 %
04.05.2016 06:30 2,1 C 2,1 C 2,2 C 91 % 1027,1 hPa 0,0 l/m 0,0 km/h (0 Bft) N 0 0 min 0,000 mm 0 W/m 0,8 C 2,1 C 0,0 km/h (0 Bft) 100 %
04.05.2016 06:40 2,1 C 2,1 C 2,2 C 91 % 1027,3 hPa 0,0 l/m 0,0 km/h (0 Bft) N 0 0 min 0,000 mm 0 W/m 0,8 C 2,1 C 0,0 km/h (0 Bft) 100 %
04.05.2016 06:50 2,1 C 2,1 C 2,1 C 91 % 1027,2 hPa 0,0 l/m 0,0 km/h (0 Bft) N 0 0 min 0,000 mm 0 W/m 0,8 C 2,1 C 0,0 km/h (0 Bft) 100 %
04.05.2016 07:00 2,1 C 2,1 C 2,1 C 91 % 1027,3 hPa 0,0 l/m 0,0 km/h (0 Bft) N 0 0 min 0,000 mm 0 W/m 0,8 C 2,1 C 0,0 km/h (0 Bft) 100 %
04.05.2016 07:10 2,1 C 2,1 C 2,1 C 91 % 1027,4 hPa 0,0 l/m 0,0 km/h (0 Bft) N 0 0 min 0,000 mm 0 W/m 0,8 C 2,1 C 0,0 km/h (0 Bft) 100 %
04.05.2016 07:20 2,2 C 2,1 C 2,2 C 91 % 1027,5 hPa 0,0 l/m 0,0 km/h (0 Bft) N 0 0 min 0,000 mm 0 W/m 0,9 C 2,2 C 0,0 km/h (0 Bft) 100 %
04.05.2016 07:30 2,4 C 2,2 C 2,4 C 91 % 1027,6 hPa 0,0 l/m 0,0 km/h (0 Bft) N 0 0 min 0,000 mm 0 W/m 1,1 C 2,4 C 0,0 km/h (0 Bft) 100 %
04.05.2016 07:40 2,6 C 2,4 C 2,6 C 91 % 1027,7 hPa 0,0 l/m 0,0 km/h (0 Bft) N 0 0 min 0,000 mm 0 W/m 1,3 C 2,6 C 0,0 km/h (0 Bft) 100 %
04.05.2016 07:50 2,9 C 2,6 C 2,9 C 91 % 1027,8 hPa 0,0 l/m 0,0 km/h (0 Bft) N 0 0 min 0,000 mm 5 W/m 1,6 C 2,9 C 0,0 km/h (0 Bft) 100 %
04.05.2016 08:00 3,1 C 2,9 C 3,1 C 91 % 1027,8 hPa 0,0 l/m 0,0 km/h (0 Bft) N 0 0 min 0,000 mm 5 W/m 1,8 C 3,1 C 0,0 km/h (0 Bft) 100 %
04.05.2016 08:10 3,4 C 3,1 C 3,4 C 91 % 1027,9 hPa 0,0 l/m 0,0 km/h (0 Bft) N-NW 337 0 min 0,000 mm 91 W/m 2,1 C 3,4 C 1,6 km/h (1 Bft) 99 %
04.05.2016 08:20 4,0 C 3,4 C 4,0 C 91 % 1027,9 hPa 0,0 l/m 0,0 km/h (0 Bft) N 0 10 min 0,000 mm 174 W/m 2,7 C 4,0 C 0,0 km/h (0 Bft) 100 %
04.05.2016 08:30 4,8 C 4,1 C 4,8 C 91 % 1027,8 hPa 0,0 l/m 0,0 km/h (0 Bft) N 0 10 min 0,000 mm 297 W/m 3,5 C 4,8 C 0,0 km/h (0 Bft) 100 %
04.05.2016 08:40 5,9 C 4,8 C 5,9 C 91 % 1027,9 hPa 0,0 l/m 0,0 km/h (0 Bft) N-NW 337 10 min 0,000 mm 315 W/m 4,5 C 5,9 C 1,6 km/h (1 Bft) 100 %
04.05.2016 08:50 6,9 C 5,9 C 6,9 C 91 % 1027,9 hPa 0,0 l/m 0,0 km/h (0 Bft) N-NW 337 10 min 0,000 mm 346 W/m 5,5 C 6,9 C 1,6 km/h (1 Bft) 100 %
04.05.2016 09:00 7,8 C 6,9 C 7,8 C 91 % 1027,9 hPa 0,0 l/m 0,0 km/h (0 Bft) N-NW 337 10 min 0,102 mm 390 W/m 6,4 C 7,8 C 4,8 km/h (1 Bft) 100 %
04.05.2016 09:10 8,6 C 7,8 C 8,6 C 90 % 1027,9 hPa 0,0 l/m 0,0 km/h (0 Bft) NO 45 10 min 0,000 mm 415 W/m 7,1 C 8,6 C 1,6 km/h (1 Bft) 100 %
04.05.2016 09:20 9,4 C 8,6 C 9,4 C 86 % 1027,8 hPa 0,0 l/m 0,0 km/h (0 Bft) N 0 10 min 0,000 mm 445 W/m 7,2 C 9,4 C 0,0 km/h (0 Bft) 100 %
04.05.2016 09:30 10,1 C 9,4 C 10,1 C 83 % 1027,9 hPa 0,0 l/m 0,0 km/h (0 Bft) NO 45 10 min 0,000 mm 476 W/m 7,3 C 10,1 C 4,8 km/h (1 Bft) 100 %
04.05.2016 09:40 10,6 C 10,1 C 10,6 C 75 % 1027,9 hPa 0,0 l/m 0,0 km/h (0 Bft) N-NO 22 10 min 0,000 mm 508 W/m 6,4 C 10,6 C 8,0 km/h (2 Bft) 100 %
04.05.2016 09:50 10,8 C 10,6 C 10,8 C 74 % 1027,9 hPa 0,0 l/m 0,0 km/h (0 Bft) SO 135 10 min 0,000 mm 540 W/m 6,4 C 10,8 C 8,0 km/h (2 Bft) 100 %
04.05.2016 10:00 11,0 C 10,8 C 11,0 C 72 % 1027,9 hPa 0,0 l/m 0,0 km/h (0 Bft) NO 45 10 min 0,229 mm 578 W/m 6,2 C 11,0 C 8,0 km/h (2 Bft) 100 %
04.05.2016 10:10 11,4 C 11,0 C 11,4 C 73 % 1027,8 hPa 0,0 l/m 0,0 km/h (0 Bft) O-SO 112 10 min 0,000 mm 657 W/m 6,7 C 11,4 C 8,0 km/h (2 Bft) 100 %
04.05.2016 10:20 11,8 C 11,5 C 11,8 C 70 % 1027,8 hPa 0,0 l/m 0,0 km/h (0 Bft) SO 135 10 min 0,000 mm 731 W/m 6,5 C 11,8 C 3,2 km/h (1 Bft) 100 %
04.05.2016 10:30 12,1 C 11,8 C 12,1 C 69 % 1027,7 hPa 0,0 l/m 0,0 km/h (0 Bft) N-NO 22 10 min 0,000 mm 835 W/m 6,6 C 12,1 C 4,8 km/h (1 Bft) 99 %
04.05.2016 10:40 11,7 C 11,7 C 12,1 C 70 % 1027,8 hPa 0,0 l/m 0,0 km/h (0 Bft) N-NW 337 10 min 0,000 mm 165 W/m 6,4 C 11,7 C 6,4 km/h (2 Bft) 100 %
04.05.2016 10:50 11,3 C 11,3 C 11,7 C 67 % 1027,7 hPa 0,0 l/m 0,0 km/h (0 Bft) N-NW 337 10 min 0,000 mm 758 W/m 5,4 C 11,3 C 1,6 km/h (1 Bft) 100 %
04.05.2016 11:00 11,6 C 11,2 C 11,6 C 62 % 1027,7 hPa 0,0 l/m 0,0 km/h (0 Bft) N-NW 337 10 min 0,254 mm 791 W/m 4,6 C 11,6 C 3,2 km/h (1 Bft) 100 %
04.05.2016 11:10 12,7 C 11,6 C 12,7 C 55 % 1027,7 hPa 0,0 l/m 0,0 km/h (0 Bft) NW 315 10 min 0,000 mm 788 W/m 3,9 C 12,7 C 6,4 km/h (2 Bft) 100 %
04.05.2016 11:20 13,2 C 12,7 C 13,2 C 51 % 1027,7 hPa 0,0 l/m 0,0 km/h (0 Bft) NW 315 10 min 0,000 mm 812 W/m 3,3 C 13,2 C 6,4 km/h (2 Bft) 100 %
04.05.2016 11:30 13,6 C 13,2 C 13,6 C 56 % 1027,6 hPa 0,0 l/m 1,6 km/h (1 Bft) N-NW 337 10 min 0,000 mm 824 W/m 5,0 C 13,6 C 16,1 km/h (3 Bft) 100 %
04.05.2016 11:40 13,7 C 13,6 C 13,7 C 50 % 1027,6 hPa 0,0 l/m 1,6 km/h (1 Bft) NW 315 10 min 0,000 mm 860 W/m 3,5 C 13,7 C 16,1 km/h (3 Bft) 100 %
04.05.2016 11:50 14,0 C 13,7 C 14,1 C 47 % 1027,6 hPa 0,0 l/m 1,6 km/h (1 Bft) N-NO 22 10 min 0,000 mm 865 W/m 2,9 C 14,0 C 6,4 km/h (2 Bft) 100 %
04.05.2016 12:00 13,9 C 13,8 C 14,0 C 50 % 1027,5 hPa 0,0 l/m 1,6 km/h (1 Bft) NW 315 10 min 0,406 mm 891 W/m 3,7 C 13,9 C 9,7 km/h (2 Bft) 100 %
04.05.2016 12:10 14,2 C 13,9 C 14,3 C 56 % 1027,4 hPa 0,0 l/m 4,8 km/h (1 Bft) NW 315 10 min 0,000 mm 877 W/m 5,6 C 14,2 C 14,5 km/h (3 Bft) 100 %
04.05.2016 12:20 14,2 C 14,2 C 14,4 C 48 % 1027,4 hPa 0,0 l/m 1,6 km/h (1 Bft) NW 315 10 min 0,000 mm 858 W/m 3,4 C 14,2 C 16,1 km/h (3 Bft) 100 %
04.05.2016 12:30 14,4 C 14,2 C 14,4 C 49 % 1027,4 hPa 0,0 l/m 3,2 km/h (1 Bft) NW 315 10 min 0,000 mm 874 W/m 3,8 C 14,4 C 14,5 km/h (3 Bft) 100 %
04.05.2016 12:40 14,5 C 14,4 C 14,5 C 48 % 1027,3 hPa 0,0 l/m 0,0 km/h (0 Bft) N-NW 337 10 min 0,000 mm 858 W/m 3,6 C 14,5 C 8,0 km/h (2 Bft) 100 %
04.05.2016 12:50 14,5 C 14,5 C 14,7 C 44 % 1027,1 hPa 0,0 l/m 0,0 km/h (0 Bft) N-NW 337 10 min 0,000 mm 865 W/m 2,4 C 14,5 C 9,7 km/h (2 Bft) 100 %
04.05.2016 13:00 14,6 C 14,3 C 14,6 C 47 % 1027,1 hPa 0,0 l/m 1,6 km/h (1 Bft) NW 315 10 min 0,457 mm 888 W/m 3,4 C 14,6 C 11,3 km/h (2 Bft) 100 %
04.05.2016 13:10 15,1 C 14,6 C 15,1 C 46 % 1027,1 hPa 0,0 l/m 3,2 km/h (1 Bft) NW 315 10 min 0,000 mm 870 W/m 3,6 C 15,1 C 14,5 km/h (3 Bft) 100 %
04.05.2016 13:20 15,2 C 15,1 C 15,3 C 42 % 1027,0 hPa 0,0 l/m 3,2 km/h (1 Bft) NW 315 10 min 0,000 mm 877 W/m 2,4 C 15,2 C 12,9 km/h (3 Bft) 100 %
04.05.2016 13:30 15,0 C 15,0 C 15,3 C 44 % 1027,0 hPa 0,0 l/m 1,6 km/h (1 Bft) O-SO 112 10 min 0,000 mm 909 W/m 2,9 C 15,0 C 9,7 km/h (2 Bft) 100 %
04.05.2016 13:40 15,0 C 14,8 C 15,0 C 49 % 1026,9 hPa 0,0 l/m 0,0 km/h (0 Bft) NO 45 10 min 0,000 mm 909 W/m 4,4 C 15,0 C 6,4 km/h (2 Bft) 100 %
04.05.2016 13:50 15,1 C 15,0 C 15,1 C 43 % 1026,9 hPa 0,0 l/m 3,2 km/h (1 Bft) NW 315 10 min 0,000 mm 886 W/m 2,6 C 15,1 C 9,7 km/h (2 Bft) 100 %
04.05.2016 14:00 14,6 C 14,6 C 15,1 C 38 % 1026,9 hPa 0,0 l/m 1,6 km/h (1 Bft) NO 45 10 min 0,432 mm 858 W/m 0,4 C 14,6 C 11,3 km/h (2 Bft) 100 %
04.05.2016 14:10 14,4 C 14,4 C 14,6 C 42 % 1027,0 hPa 0,0 l/m 1,6 km/h (1 Bft) SO 135 10 min 0,000 mm 891 W/m 1,7 C 14,4 C 11,3 km/h (2 Bft) 91 %
04.05.2016 14:20 14,6 C 14,3 C 14,6 C 41 % 1026,8 hPa 0,0 l/m 3,2 km/h (1 Bft) S-SW 202 10 min 0,000 mm 909 W/m 1,5 C 14,6 C 14,5 km/h (3 Bft) 99 %
04.05.2016 14:30 15,0 C 14,6 C 15,0 C 44 % 1026,8 hPa 0,0 l/m 0,0 km/h (0 Bft) W-SW 247 10 min 0,000 mm 909 W/m 2,9 C 15,0 C 6,4 km/h (2 Bft) 100 %
04.05.2016 14:40 15,2 C 14,9 C 15,2 C 44 % 1026,8 hPa 0,0 l/m 1,6 km/h (1 Bft) NW 315 10 min 0,000 mm 930 W/m 3,0 C 15,2 C 8,0 km/h (2 Bft) 99 %
04.05.2016 14:50 15,0 C 15,0 C 15,4 C 44 % 1026,8 hPa 0,0 l/m 1,6 km/h (1 Bft) SO 135 10 min 0,000 mm 867 W/m 2,9 C 15,0 C 8,0 km/h (2 Bft) 100 %
04.05.2016 15:00 15,1 C 14,9 C 15,1 C 40 % 1026,6 hPa 0,0 l/m 1,6 km/h (1 Bft) S 180 10 min 0,432 mm 846 W/m 1,6 C 15,1 C 8,0 km/h (2 Bft) 100 %
04.05.2016 15:10 15,5 C 15,1 C 15,5 C 41 % 1026,5 hPa 0,0 l/m 0,0 km/h (0 Bft) N-NO 22 10 min 0,000 mm 882 W/m 2,3 C 15,5 C 8,0 km/h (2 Bft) 100 %
04.05.2016 15:20 15,3 C 15,3 C 15,6 C 43 % 1026,5 hPa 0,0 l/m 0,0 km/h (0 Bft) N-NW 337 10 min 0,000 mm 772 W/m 2,8 C 15,3 C 4,8 km/h (1 Bft) 100 %
04.05.2016 15:30 14,4 C 14,4 C 15,3 C 40 % 1026,4 hPa 0,0 l/m 0,0 km/h (0 Bft) N-NW 337 10 min 0,000 mm 156 W/m 1,0 C 14,4 C 1,6 km/h (1 Bft) 100 %
04.05.2016 15:40 14,5 C 14,3 C 14,5 C 42 % 1026,3 hPa 0,0 l/m 0,0 km/h (0 Bft) N-NW 337 10 min 0,000 mm 192 W/m 1,7 C 14,5 C 1,6 km/h (1 Bft) 100 %
04.05.2016 15:50 14,8 C 14,5 C 14,8 C 45 % 1026,2 hPa 0,0 l/m 0,0 km/h (0 Bft) O-SO 112 0 min 0,000 mm 151 W/m 3,0 C 14,8 C 6,4 km/h (2 Bft) 100 %
04.05.2016 16:00 14,8 C 14,8 C 15,0 C 41 % 1026,2 hPa 0,0 l/m 1,6 km/h (1 Bft) O-SO 112 10 min 0,152 mm 163 W/m 1,7 C 14,8 C 8,0 km/h (2 Bft) 100 %
04.05.2016 16:10 15,1 C 14,8 C 15,1 C 40 % 1026,1 hPa 0,0 l/m 0,0 km/h (0 Bft) S-SW 202 10 min 0,000 mm 313 W/m 1,6 C 15,1 C 1,6 km/h (1 Bft) 100 %
04.05.2016 16:20 15,1 C 15,1 C 15,2 C 40 % 1026,1 hPa 0,0 l/m 1,6 km/h (1 Bft) O-SO 112 10 min 0,000 mm 476 W/m 1,6 C 15,1 C 8,0 km/h (2 Bft) 100 %
04.05.2016 16:30 14,8 C 14,8 C 15,1 C 38 % 1026,0 hPa 0,0 l/m 0,0 km/h (0 Bft) O-NO 67 10 min 0,000 mm 160 W/m 0,6 C 14,8 C 1,6 km/h (1 Bft) 100 %
04.05.2016 16:40 14,3 C 14,3 C 14,8 C 42 % 1026,0 hPa 0,0 l/m 0,0 km/h (0 Bft) W 270 10 min 0,000 mm 167 W/m 1,6 C 14,3 C 4,8 km/h (1 Bft) 100 %
04.05.2016 16:50 14,6 C 14,2 C 14,6 C 44 % 1025,8 hPa 0,0 l/m 0,0 km/h (0 Bft) NW 315 10 min 0,000 mm 234 W/m 2,5 C 14,6 C 6,4 km/h (2 Bft) 100 %
04.05.2016 17:00 15,1 C 14,6 C 15,1 C 45 % 1025,8 hPa 0,0 l/m 1,6 km/h (1 Bft) O-SO 112 10 min 0,102 mm 239 W/m 3,3 C 15,1 C 12,9 km/h (3 Bft) 100 %
04.05.2016 17:10 15,4 C 15,1 C 15,4 C 42 % 1025,8 hPa 0,0 l/m 1,6 km/h (1 Bft) NO 45 10 min 0,000 mm 163 W/m 2,6 C 15,4 C 11,3 km/h (2 Bft) 100 %
04.05.2016 17:20 15,3 C 15,3 C 15,5 C 41 % 1025,8 hPa 0,0 l/m 0,0 km/h (0 Bft) N-NW 337 10 min 0,000 mm 160 W/m 2,1 C 15,3 C 11,3 km/h (2 Bft) 100 %
04.05.2016 17:30 14,9 C 14,9 C 15,3 C 44 % 1025,8 hPa 0,0 l/m 0,0 km/h (0 Bft) N 0 0 min 0,000 mm 130 W/m 2,8 C 14,9 C 0,0 km/h (0 Bft) 100 %
04.05.2016 17:40 14,5 C 14,5 C 14,9 C 45 % 1025,8 hPa 0,0 l/m 0,0 km/h (0 Bft) N 0 0 min 0,000 mm 120 W/m 2,7 C 14,5 C 0,0 km/h (0 Bft) 100 %
04.05.2016 17:50 14,2 C 14,2 C 14,5 C 53 % 1025,8 hPa 0,0 l/m 0,0 km/h (0 Bft) N 0 0 min 0,000 mm 84 W/m 4,8 C 14,2 C 0,0 km/h (0 Bft) 100 %
04.05.2016 18:00 13,8 C 13,8 C 14,2 C 47 % 1025,8 hPa 0,0 l/m 0,0 km/h (0 Bft) N 0 0 min 0,076 mm 132 W/m 2,7 C 13,8 C 0,0 km/h (0 Bft) 100 %
04.05.2016 18:10 14,1 C 13,8 C 14,1 C 44 % 1025,7 hPa 0,0 l/m 0,0 km/h (0 Bft) O-SO 112 0 min 0,000 mm 149 W/m 2,0 C 14,1 C 3,2 km/h (1 Bft) 100 %
04.05.2016 18:20 14,3 C 14,1 C 14,3 C 46 % 1025,8 hPa 0,0 l/m 0,0 km/h (0 Bft) SO 135 0 min 0,000 mm 107 W/m 2,8 C 14,3 C 4,8 km/h (1 Bft) 100 %
04.05.2016 18:30 14,2 C 14,2 C 14,3 C 47 % 1025,8 hPa 0,0 l/m 0,0 km/h (0 Bft) SO 135 0 min 0,000 mm 90 W/m 3,1 C 14,2 C 1,6 km/h (1 Bft) 100 %
04.05.2016 18:40 13,9 C 13,9 C 14,1 C 53 % 1025,7 hPa 0,0 l/m 0,0 km/h (0 Bft) N 0 0 min 0,000 mm 93 W/m 4,5 C 13,9 C 0,0 km/h (0 Bft) 100 %
04.05.2016 18:50 13,8 C 13,8 C 13,9 C 53 % 1025,6 hPa 0,0 l/m 0,0 km/h (0 Bft) S 180 0 min 0,000 mm 86 W/m 4,4 C 13,8 C 1,6 km/h (1 Bft) 100 %
04.05.2016 19:00 13,7 C 13,7 C 13,8 C 55 % 1025,6 hPa 0,0 l/m 0,0 km/h (0 Bft) N 0 0 min 0,051 mm 67 W/m 4,8 C 13,7 C 0,0 km/h (0 Bft) 100 %
04.05.2016 19:10 13,4 C 13,4 C 13,8 C 51 % 1025,7 hPa 0,0 l/m 0,0 km/h (0 Bft) S 169 0 min 0,000 mm 44 W/m 3,5 C 13,4 C 1,6 km/h (1 Bft) 100 %
04.05.2016 19:20 13,2 C 13,2 C 13,4 C 59 % 1025,7 hPa 0,0 l/m 0,1 km/h (0 Bft) S-SO 156 0 min 0,000 mm 33 W/m 5,4 C 13,2 C 3,2 km/h (1 Bft) 91 %
04.05.2016 19:30 12,9 C 12,9 C 13,2 C 51 % 1025,7 hPa 0,0 l/m 0,0 km/h (0 Bft) S-SO 156 0 min 0,000 mm 25 W/m 3,0 C 12,9 C 0,0 km/h (0 Bft) 100 %
04.05.2016 19:40 12,4 C 12,4 C 12,9 C 54 % 1025,7 hPa 0,0 l/m 0,0 km/h (0 Bft) S-SO 156 0 min 0,000 mm 21 W/m 3,4 C 12,4 C 0,0 km/h (0 Bft) 100 %
04.05.2016 19:50 11,9 C 11,9 C 12,4 C 50 % 1025,7 hPa 0,0 l/m 0,0 km/h (0 Bft) S-SO 156 0 min 0,000 mm 19 W/m 1,8 C 11,9 C 0,0 km/h (0 Bft) 100 %
04.05.2016 20:00 11,5 C 11,5 C 11,9 C 51 % 1025,7 hPa 0,0 l/m 0,0 km/h (0 Bft) S-SO 156 0 min 0,025 mm 16 W/m 1,7 C 11,5 C 0,0 km/h (0 Bft) 99 %
04.05.2016 20:10 11,1 C 11,1 C 11,5 C 51 % 1025,8 hPa 0,0 l/m 0,0 km/h (0 Bft) S-SO 156 0 min 0,000 mm 12 W/m 1,4 C 11,1 C 0,0 km/h (0 Bft) 100 %
04.05.2016 20:20 10,7 C 10,7 C 11,1 C 52 % 1025,8 hPa 0,0 l/m 0,0 km/h (0 Bft) S-SO 156 0 min 0,000 mm 11 W/m 1,3 C 10,7 C 0,0 km/h (0 Bft) 100 %
04.05.2016 20:30 10,4 C 10,4 C 10,7 C 58 % 1025,8 hPa 0,0 l/m 0,0 km/h (0 Bft) SO 144 0 min 0,000 mm 7 W/m 2,5 C 10,4 C 0,0 km/h (0 Bft) 100 %
04.05.2016 20:40 10,1 C 10,1 C 10,4 C 55 % 1025,8 hPa 0,0 l/m 0,0 km/h (0 Bft) SO 144 0 min 0,000 mm 5 W/m 1,5 C 10,1 C 0,0 km/h (0 Bft) 100 %
04.05.2016 20:50 9,7 C 9,7 C 10,1 C 62 % 1025,9 hPa 0,0 l/m 0,0 km/h (0 Bft) SO 144 0 min 0,000 mm 0 W/m 2,8 C 9,7 C 0,0 km/h (0 Bft) 100 %
04.05.2016 21:00 9,4 C 9,4 C 9,7 C 60 % 1025,9 hPa 0,0 l/m 0,0 km/h (0 Bft) SO 144 0 min 0,000 mm 0 W/m 2,0 C 9,4 C 0,0 km/h (0 Bft) 100 %
04.05.2016 21:10 9,0 C 9,0 C 9,7 C 58 % 1026,0 hPa 0,0 l/m 0,0 km/h (0 Bft) SO 144 0 min 0,000 mm 0 W/m 1,2 C 9,0 C 0,0 km/h (0 Bft) 100 %
04.05.2016 21:20 8,8 C 8,8 C 9,7 C 58 % 1026,0 hPa 0,0 l/m 0,1 km/h (0 Bft) SO 144 0 min 0,000 mm 0 W/m 1,0 C 8,8 C 1,6 km/h (1 Bft) 100 %
04.05.2016 21:30 8,8 C 8,8 C 8,9 C 59 % 1026,0 hPa 0,0 l/m 0,0 km/h (0 Bft) SO 144 0 min 0,000 mm 0 W/m 1,2 C 8,8 C 0,0 km/h (0 Bft) 100 %
04.05.2016 21:40 8,5 C 8,5 C 8,8 C 60 % 1026,1 hPa 0,0 l/m 0,0 km/h (0 Bft) SO 144 0 min 0,000 mm 0 W/m 1,2 C 8,5 C 1,6 km/h (1 Bft) 100 %
04.05.2016 21:50 8,1 C 8,1 C 8,5 C 62 % 1026,1 hPa 0,0 l/m 0,0 km/h (0 Bft) SO 144 0 min 0,000 mm 0 W/m 1,3 C 8,1 C 0,0 km/h (0 Bft) 100 %
04.05.2016 22:01 7,8 C 7,8 C 8,1 C 60 % 1026,1 hPa 0,0 l/m 0,0 km/h (0 Bft) SO 144 0 min 0,025 mm 0 W/m 0,5 C 7,8 C 1,6 km/h (1 Bft) 100 %
04.05.2016 22:10 7,6 C 7,6 C 7,8 C 65 % 1026,1 hPa 0,0 l/m 1,8 km/h (1 Bft) SO 138 0 min 0,000 mm 0 W/m 1,5 C 7,6 C 3,2 km/h (1 Bft) 100 %
04.05.2016 22:20 7,3 C 7,3 C 7,6 C 69 % 1026,2 hPa 0,0 l/m 0,4 km/h (0 Bft) SO 133 0 min 0,000 mm 0 W/m 2,0 C 7,3 C 3,2 km/h (1 Bft) 100 %
04.05.2016 22:30 6,8 C 6,8 C 7,3 C 71 % 1026,3 hPa 0,0 l/m 0,0 km/h (0 Bft) SO 133 0 min 0,000 mm 0 W/m 1,9 C 6,8 C 0,0 km/h (0 Bft) 100 %
04.05.2016 22:40 6,7 C 6,7 C 6,8 C 71 % 1026,4 hPa 0,0 l/m 0,0 km/h (0 Bft) SO 133 0 min 0,000 mm 0 W/m 1,8 C 6,7 C 0,0 km/h (0 Bft) 100 %
04.05.2016 22:50 6,6 C 6,6 C 6,7 C 71 % 1026,3 hPa 0,0 l/m 0,0 km/h (0 Bft) SO 133 0 min 0,000 mm 0 W/m 1,7 C 6,6 C 0,0 km/h (0 Bft) 100 %
04.05.2016 23:00 6,5 C 6,5 C 6,6 C 70 % 1026,3 hPa 0,0 l/m 0,2 km/h (0 Bft) O 90 0 min 0,000 mm 0 W/m 1,4 C 6,5 C 4,8 km/h (1 Bft) 100 %
04.05.2016 23:10 6,6 C 6,5 C 6,6 C 68 % 1026,3 hPa 0,0 l/m 0,8 km/h (0 Bft) NO 34 0 min 0,026 mm 0 W/m 1,1 C 6,6 C 6,4 km/h (2 Bft) 100 %
04.05.2016 23:20 6,8 C 6,6 C 6,8 C 67 % 1026,2 hPa 0,0 l/m 0,7 km/h (0 Bft) N 11 0 min 0,000 mm 0 W/m 1,1 C 6,8 C 4,8 km/h (1 Bft) 100 %
04.05.2016 23:30 6,9 C 6,8 C 6,9 C 66 % 1026,2 hPa 0,0 l/m 0,4 km/h (0 Bft) NO 40 0 min 0,000 mm 0 W/m 1,0 C 6,9 C 4,8 km/h (1 Bft) 100 %
04.05.2016 23:40 7,1 C 6,9 C 7,1 C 63 % 1026,3 hPa 0,0 l/m 0,3 km/h (0 Bft) N-NO 30 0 min 0,000 mm 0 W/m 0,5 C 7,1 C 8,0 km/h (2 Bft) 100 %
04.05.2016 23:50 7,3 C 7,1 C 7,3 C 63 % 1026,3 hPa 0,0 l/m 1,2 km/h (1 Bft) NO 36 0 min 0,000 mm 0 W/m 0,7 C 7,3 C 8,0 km/h (2 Bft) 100 %
_ Min-Zeit 06:30 06:30 06:50 14:00 00:00 - 00:00 - - - - - 14:00 06:30 00:00 04:30
Minimum _ 2,1 C 2,1 C 2,1 C 38 % 1025,5 hPa - 0,0 km/h (0 Bft) - - - - - 0,4 C 2,1 C 0,0 km/h (0 Bft) 91 %
_ Max-Zeit 15:20 15:20 15:20 00:00 08:10 00:00 12:10 - - 08:20 13:00 14:40 09:30 15:10 11:30 00:00
Maximum _ 15,6 C 15,3 C 15,6 C 91 % 1027,9 hPa 0,0 l/m 4,8 km/h
NW (1 Bft)
- - 10 min 0,457 mm 930 W/m 7,3 C 15,5 C 16,1 km/h
NW (3 Bft)
100 %
Durchschnitt _ 9,2 C 9,1 C 9,4 C 68 % 1026,6 hPa #0,0 l/m 0,4 km/h (0 Bft) NW - #9:00 h #2,769 mm 448 W/m 3,0 C 9,2 C 3,4 km/h (1 Bft) 100 %
PRIVATE WETTERSTATION BILLIGHEIM-ALLFELD - www.neckar-odenwald-wetter.de - Holger Sonntag